.
WxDataArchive / Data Records for 2010-02-27
2010-02-26 February 2010 2010-02-28

Data Records for Saturday, 27 February 2010

Time	Temp	Chill	HIndex	Humid	Dewpt	 Wind 	HiWind	WindDir	Rain 	Barom 
-----	----	-----	------	-----	-----	------	------	-------	-----	----- 
00:00	28.4	28.4	28.4	92	26.4	0	1	270	0.00	29.792 
00:05	28.4	28.4	28.4	92	26.4	0	2	315	0.00	29.792 
00:10	28.4	28.4	28.4	92	26.4	1	3	270	0.00	29.792 
00:15	28.4	28.4	28.4	93	26.6	0	2	315	0.00	29.782 
00:20	28.2	28.2	28.2	93	26.4	1	2	315	0.00	29.782 
00:25	28.2	28.2	28.2	93	26.4	1	3	270	0.00	29.782 
00:30	28.2	28.2	28.2	93	26.4	1	2	338	0.00	29.780 
00:35	28.2	28.2	28.2	93	26.4	0	2	270	0.00	29.780 
00:40	28.2	28.2	28.2	93	26.4	1	2	338	0.00	29.780 
00:45	28.2	28.2	28.2	93	26.4	0	2	338	0.00	29.787 
00:50	28.2	28.2	28.2	93	26.4	0	2	315	0.00	29.787 
00:55	28.2	28.2	28.2	93	26.4	0	2	315	0.00	29.787 
01:00	28.2	28.2	28.2	93	26.4	1	2	248	0.00	29.783 
01:05	28.2	28.2	28.2	93	26.4	0	2	338	0.00	29.783 
01:10	28.2	28.2	28.2	93	26.4	0	2	270	0.00	29.783 
01:15	28.2	28.2	28.2	93	26.4	0	2	270	0.00	29.780 
01:20	28.2	28.2	28.2	93	26.4	0	2	270	0.00	29.780 
01:25	28.2	28.2	28.2	93	26.4	0	2	270	0.00	29.780 
01:30	28.2	28.2	28.2	93	26.4	0	3	270	0.00	29.779 
01:35	28.2	28.2	28.2	93	26.4	0	3	270	0.00	29.779 
01:40	28.2	28.2	28.2	93	26.4	0	1	270	0.00	29.779 
01:45	28.2	28.2	28.2	93	26.4	0	1	292	0.00	29.783 
01:50	28.2	28.2	28.2	93	26.4	0	3	292	0.00	29.783 
01:55	28.2	28.2	28.2	93	26.4	0	2	270	0.00	29.783 
02:00	28.2	28.2	28.2	92	26.2	0	2	315	0.00	29.781 
02:05	28.2	28.2	28.2	92	26.2	0	2	315	0.00	29.781 
02:10	28.2	28.2	28.2	92	26.2	0	1	315	0.00	29.781 
02:15	28.2	28.2	28.2	92	26.2	0	1	315	0.00	29.776 
02:20	28.4	28.4	28.4	92	26.4	0	2	248	0.00	29.776 
02:25	28.4	28.4	28.4	92	26.4	0	2	315	0.00	29.776 
02:30	28.4	28.4	28.4	92	26.4	0	2	315	0.00	29.780 
02:35	28.4	28.4	28.4	92	26.4	0	3	270	0.00	29.780 
02:40	28.4	28.4	28.4	92	26.4	0	3	270	0.00	29.780 
02:45	28.4	28.4	28.4	92	26.4	1	4	292	0.00	29.782 
02:50	28.4	28.4	28.4	92	26.4	0	2	292	0.00	29.782 
02:55	28.4	28.4	28.4	91	26.1	0	2	270	0.00	29.782 
03:00	28.4	28.4	28.4	91	26.1	0	2	248	0.00	29.781 
03:05	28.4	28.4	28.4	91	26.1	0	1	248	0.00	29.781 
03:10	28.4	28.4	28.4	91	26.1	0	1	248	0.00	29.781 
03:15	28.4	28.4	28.4	91	26.1	0	2	248	0.00	29.777 
03:20	28.4	28.4	28.4	91	26.1	0	2	248	0.00	29.777 
03:25	28.4	28.4	28.4	91	26.1	0	2	248	0.00	29.777 
03:30	28.5	28.5	28.5	90	25.9	1	3	248	0.00	29.776 
03:35	28.4	28.4	28.4	90	25.8	1	3	0	0.00	29.776 
03:40	28.5	28.5	28.5	90	25.9	0	2	0	0.00	29.776 
03:45	28.5	28.5	28.5	90	25.9	0	2	315	0.00	29.777 
03:50	28.5	28.5	28.5	90	25.9	0	2	270	0.00	29.777 
03:55	28.5	28.5	28.5	90	25.9	0	2	292	0.00	29.777 
04:00	28.5	28.5	28.5	90	25.9	0	2	292	0.00	29.781 
04:05	28.5	28.5	28.5	90	25.9	0	3	292	0.00	29.781 
04:10	28.5	28.5	28.5	90	25.9	0	2	292	0.00	29.781 
04:15	28.5	28.5	28.5	90	25.9	0	3	292	0.00	29.788 
04:20	28.5	28.5	28.5	90	25.9	1	3	270	0.00	29.788 
04:25	28.5	28.5	28.5	89	25.7	1	4	270	0.00	29.788 
04:30	28.5	28.5	28.5	89	25.7	0	2	270	0.00	29.791 
04:35	28.5	28.5	28.5	89	25.7	0	1	270	0.00	29.791 
04:40	28.5	28.5	28.5	89	25.7	0	3	270	0.00	29.791 
04:45	28.5	28.5	28.5	89	25.7	1	2	338	0.00	29.794 
04:50	28.5	28.5	28.5	89	25.7	1	3	270	0.00	29.794 
04:55	28.5	28.5	28.5	89	25.7	0	2	270	0.00	29.794 
05:00	28.5	28.5	28.5	89	25.7	1	4	270	0.00	29.796 
05:05	28.5	28.5	28.5	89	25.7	0	3	270	0.00	29.796 
05:10	28.5	28.5	28.5	89	25.7	0	2	315	0.00	29.796 
05:15	28.5	28.5	28.5	89	25.7	0	2	315	0.00	29.797 
05:20	28.5	28.5	28.5	89	25.7	0	1	315	0.00	29.797 
05:25	28.5	28.5	28.5	89	25.7	0	1	315	0.00	29.797 
05:30	28.5	28.5	28.5	89	25.7	0	1	315	0.00	29.802 
05:35	28.5	28.5	28.5	89	25.7	0	2	315	0.00	29.802 
05:40	28.5	28.5	28.5	89	25.7	0	2	270	0.00	29.802 
05:45	28.5	28.5	28.5	89	25.7	0	2	270	0.00	29.805 
05:50	28.5	28.5	28.5	89	25.7	0	1	270	0.00	29.805 
05:55	28.5	28.5	28.5	89	25.7	0	2	270	0.00	29.805 
06:00	28.5	28.5	28.5	89	25.7	1	2	270	0.00	29.809 
06:05	28.5	28.5	28.5	89	25.7	0	2	270	0.00	29.809 
06:10	28.5	28.5	28.5	89	25.7	0	2	0	0.00	29.809 
06:15	28.5	28.5	28.5	89	25.7	0	2	248	0.00	29.809 
06:20	28.4	28.4	28.4	89	25.6	0	2	248	0.00	29.809 
06:25	28.4	28.4	28.4	89	25.6	0	2	338	0.00	29.809 
06:30	28.4	28.4	28.4	89	25.6	0	2	338	0.00	29.809 
06:35	28.4	28.4	28.4	89	25.6	0	1	338	0.00	29.809 
06:40	28.4	28.4	28.4	89	25.6	0	2	338	0.00	29.809 
06:45	28.4	28.4	28.4	89	25.6	0	1	338	0.00	29.810 
06:50	28.4	28.4	28.4	89	25.6	0	2	338	0.00	29.810 
06:55	28.4	28.4	28.4	89	25.6	0	2	225	0.00	29.810 
07:00	28.4	28.4	28.4	89	25.6	0	3	338	0.00	29.810 
07:05	28.4	28.4	28.4	89	25.6	0	2	248	0.00	29.810 
07:10	28.4	28.4	28.4	89	25.6	0	1	248	0.00	29.810 
07:15	28.4	28.4	28.4	89	25.6	0	1	248	0.00	29.810 
07:20	28.4	28.4	28.4	89	25.6	0	2	0	0.00	29.810 
07:25	28.4	28.4	28.4	89	25.6	0	2	270	0.00	29.810 
07:30	28.4	28.4	28.4	89	25.6	0	1	270	0.00	29.811 
07:35	28.4	28.4	28.4	89	25.6	0	2	270	0.00	29.811 
07:40	28.4	28.4	28.4	89	25.6	0	2	315	0.00	29.811 
07:45	28.5	28.5	28.5	89	25.7	0	1	315	0.00	29.811 
07:50	28.5	28.5	28.5	88	25.4	0	2	270	0.00	29.811 
07:55	28.7	28.7	28.7	88	25.6	0	2	315	0.00	29.811 
08:00	28.7	28.7	28.7	88	25.6	1	2	315	0.00	29.811 
08:05	28.8	28.8	28.8	88	25.7	1	3	248	0.00	29.811 
08:10	29.0	29.0	29.0	88	25.9	1	2	248	0.00	29.811 
08:15	29.0	29.0	29.0	88	25.9	0	3	270	0.00	29.811 
08:20	29.0	29.0	29.0	88	25.9	0	2	338	0.00	29.811 
08:25	29.0	29.0	29.0	88	25.9	0	2	338	0.00	29.811 
08:30	29.1	29.1	29.1	88	26.0	0	2	338	0.00	29.822 
08:35	29.3	29.3	29.3	88	26.2	0	2	315	0.00	29.822 
08:40	29.4	29.4	29.4	87	26.0	0	1	315	0.00	29.822 
08:45	29.4	29.4	29.4	87	26.0	1	3	292	0.00	29.823 
08:50	29.4	29.4	29.4	87	26.0	0	2	0	0.00	29.823 
08:55	29.5	29.5	29.5	87	26.1	0	1	0	0.00	29.823 
09:00	29.7	29.7	29.7	87	26.3	0	2	0	0.00	29.824 
09:05	29.7	29.7	29.7	87	26.3	0	2	270	0.00	29.824 
09:10	29.7	29.7	29.7	86	26.0	1	3	270	0.00	29.824 
09:15	29.8	29.8	29.8	86	26.1	0	2	315	0.00	29.823 
09:20	30.0	30.0	30.0	86	26.3	1	3	315	0.00	29.823 
09:25	30.1	30.1	30.1	86	26.4	1	2	315	0.00	29.823 
09:30	30.3	30.3	30.3	86	26.6	1	3	315	0.00	29.824 
09:35	30.4	30.4	30.4	86	26.7	1	4	270	0.00	29.824 
09:40	30.6	30.6	30.6	85	26.6	1	2	315	0.00	29.824 
09:45	30.7	30.7	30.7	85	26.7	1	5	248	0.00	29.825 
09:50	30.7	30.7	30.7	85	26.7	0	2	248	0.00	29.825 
09:55	30.9	30.9	30.9	84	26.6	1	2	292	0.00	29.825 
10:00	31.0	31.0	31.0	84	26.7	1	3	292	0.00	29.822 
10:05	31.2	31.2	31.2	84	26.9	1	3	248	0.00	29.822 
10:10	31.2	31.2	31.2	84	26.9	1	2	315	0.00	29.822 
10:15	31.2	31.2	31.2	84	26.9	1	2	338	0.00	29.831 
10:20	31.0	31.0	31.0	84	26.7	1	4	315	0.00	29.831 
10:25	31.2	31.2	31.2	84	26.9	1	2	315	0.00	29.831 
10:30	31.3	31.3	31.3	83	26.7	1	3	315	0.00	29.836 
10:35	31.2	31.2	31.2	83	26.6	1	4	315	0.00	29.836 
10:40	31.3	31.3	31.3	83	26.7	1	3	315	0.00	29.836 
10:45	31.6	31.6	31.6	83	27.0	1	3	315	0.00	29.835 
10:50	31.8	31.8	31.8	83	27.2	1	3	315	0.01	29.835 
10:55	31.9	31.9	31.9	82	27.0	1	3	338	0.00	29.835 
11:00	32.1	32.1	32.1	82	27.2	1	3	338	0.00	29.827 
11:05	32.2	32.2	32.2	82	27.3	1	3	0	0.01	29.827 
11:10	32.5	32.5	32.5	81	27.3	1	3	0	0.00	29.827 
11:15	32.8	32.8	32.8	81	27.6	1	3	315	0.01	29.822 
11:20	32.8	32.8	32.8	81	27.6	1	4	338	0.00	29.822 
11:25	32.9	32.9	32.9	80	27.4	1	3	292	0.01	29.822 
11:30	32.9	32.9	32.9	79	27.1	2	3	292	0.00	29.820 
11:35	32.9	32.9	32.9	79	27.1	1	3	292	0.01	29.820 
11:40	33.1	33.1	33.1	80	27.6	1	2	315	0.00	29.820 
11:45	33.1	33.1	33.1	79	27.3	1	4	338	0.01	29.820 
11:50	33.1	33.1	33.1	79	27.3	1	3	270	0.00	29.820 
11:55	33.2	33.2	33.2	79	27.4	1	2	315	0.01	29.820 
12:00	33.2	33.2	33.2	78	27.1	2	4	315	0.00	29.820 
12:05	33.2	33.2	33.2	78	27.1	2	4	270	0.01	29.820 
12:10	33.2	33.2	33.2	78	27.1	1	4	270	0.00	29.820 
12:15	33.4	33.4	33.4	78	27.3	2	3	270	0.00	29.817 
12:20	33.2	33.2	33.2	77	26.8	2	4	270	0.01	29.817 
12:25	33.4	33.4	33.4	77	27.0	2	4	270	0.00	29.817 
12:30	33.5	33.5	33.5	77	27.1	2	4	315	0.00	29.813 
12:35	33.7	33.7	33.7	77	27.3	2	6	270	0.00	29.813 
12:40	33.7	33.7	33.7	76	27.0	2	4	338	0.00	29.813 
12:45	33.7	33.7	33.7	76	27.0	2	5	315	0.01	29.808 
12:50	33.8	33.8	33.8	75	26.7	2	4	315	0.00	29.808 
12:55	33.8	33.8	33.8	76	27.1	1	3	338	0.00	29.808 
13:00	34.0	34.0	34.0	75	26.9	2	4	248	0.00	29.805 
13:05	34.0	34.0	34.0	75	26.9	2	6	248	0.00	29.805 
13:10	34.0	34.0	34.0	73	26.3	2	5	315	0.00	29.805 
13:15	34.1	34.1	34.1	73	26.4	2	5	270	0.00	29.805 
13:20	34.3	34.3	34.3	73	26.6	2	4	270	0.00	29.805 
13:25	34.6	34.6	34.6	73	26.9	1	4	270	0.01	29.805 
13:30	34.7	34.7	34.7	72	26.6	2	5	315	0.00	29.802 
13:35	34.7	34.7	34.7	72	26.6	2	5	270	0.00	29.802 
13:40	34.7	34.7	34.7	72	26.6	2	5	270	0.00	29.802 
13:45	34.7	34.7	34.7	72	26.6	2	5	270	0.00	29.796 
13:50	34.6	34.6	34.6	73	26.9	2	3	248	0.00	29.796 
13:55	34.7	34.7	34.7	73	26.9	2	4	248	0.00	29.796 
14:00	34.6	34.6	34.6	72	26.5	2	4	315	0.00	29.789 
14:05	34.6	34.6	34.6	73	26.9	2	3	270	0.00	29.789 
14:10	34.7	34.7	34.7	73	26.9	2	4	248	0.00	29.789 
14:15	35.0	35.0	35.0	72	26.9	1	3	248	0.00	29.783 
14:20	34.9	34.9	34.9	72	26.8	2	4	270	0.00	29.783 
14:25	35.0	35.0	35.0	72	26.9	2	3	292	0.00	29.783 
14:30	35.2	35.2	35.2	71	26.8	2	4	248	0.00	29.776 
14:35	35.2	35.2	35.2	71	26.8	2	4	225	0.00	29.776 
14:40	35.0	35.0	35.0	71	26.6	2	5	248	0.00	29.776 
14:45	34.9	34.9	34.9	72	26.8	3	5	270	0.00	29.772 
14:50	34.9	34.9	34.9	72	26.8	2	5	270	0.00	29.772 
14:55	34.9	34.9	34.9	72	26.8	2	5	292	0.00	29.772 
15:00	35.0	35.0	35.0	72	26.9	2	5	292	0.00	29.772 
15:05	34.9	34.9	34.9	71	26.5	2	5	270	0.00	29.772 
15:10	34.9	34.9	34.9	72	26.8	1	5	270	0.00	29.772 
15:15	34.9	34.9	34.9	72	26.8	1	4	338	0.00	29.772 
15:20	34.9	34.9	34.9	72	26.8	2	4	270	0.00	29.772 
15:25	34.9	34.9	34.9	72	26.8	1	4	315	0.00	29.772 
15:30	34.9	34.9	34.9	72	26.8	1	3	248	0.00	29.770 
15:35	34.9	34.9	34.9	72	26.8	2	4	248	0.00	29.770 
15:40	34.9	34.9	34.9	72	26.8	2	4	292	0.00	29.770 
15:45	34.9	34.9	34.9	72	26.8	2	4	270	0.00	29.770 
15:50	34.7	34.7	34.7	72	26.6	2	5	270	0.00	29.770 
15:55	34.7	34.7	34.7	72	26.6	2	5	270	0.00	29.770 
16:00	34.6	34.6	34.6	72	26.5	3	5	270	0.00	29.771 
16:05	34.6	34.6	34.6	73	26.9	2	4	315	0.00	29.771 
16:10	34.6	34.6	34.6	73	26.9	2	4	270	0.00	29.771 
16:15	34.6	34.6	34.6	73	26.9	2	4	270	0.00	29.773 
16:20	34.6	34.6	34.6	73	26.9	2	4	270	0.00	29.773 
16:25	34.6	34.6	34.6	73	26.9	2	5	270	0.00	29.773 
16:30	34.6	34.6	34.6	74	27.2	2	4	270	0.00	29.777 
16:35	34.7	34.7	34.7	74	27.3	2	3	270	0.00	29.777 
16:40	34.7	34.7	34.7	75	27.6	1	3	315	0.00	29.777 
16:45	34.9	34.9	34.9	75	27.8	2	4	248	0.00	29.775 
16:50	34.9	34.9	34.9	75	27.8	1	3	248	0.00	29.775 
16:55	34.9	34.9	34.9	75	27.8	2	5	292	0.00	29.775 
17:00	34.9	34.9	34.9	75	27.8	1	3	315	0.00	29.776 
17:05	34.9	34.9	34.9	75	27.8	2	4	248	0.00	29.776 
17:10	34.9	34.9	34.9	75	27.8	2	5	270	0.00	29.776 
17:15	34.9	34.9	34.9	75	27.8	1	4	270	0.00	29.782 
17:20	35.0	35.0	35.0	76	28.2	1	3	270	0.00	29.782 
17:25	35.0	35.0	35.0	76	28.2	1	3	270	0.00	29.782 
17:30	35.0	35.0	35.0	76	28.2	1	3	270	0.00	29.782 
17:35	35.0	35.0	35.0	76	28.2	1	3	292	0.00	29.782 
17:40	35.0	35.0	35.0	76	28.2	1	5	248	0.00	29.782 
17:45	35.0	35.0	35.0	76	28.2	1	3	338	0.00	29.781 
17:50	35.0	35.0	35.0	76	28.2	1	5	248	0.00	29.781 
17:55	35.0	35.0	35.0	75	27.9	1	3	338	0.00	29.781 
18:00	35.0	35.0	35.0	75	27.9	2	4	248	0.00	29.784 
18:05	35.0	35.0	35.0	75	27.9	1	3	338	0.00	29.784 
18:10	35.0	35.0	35.0	75	27.9	1	4	292	0.00	29.784 
18:15	35.0	35.0	35.0	76	28.2	1	3	270	0.00	29.787 
18:20	34.9	34.9	34.9	76	28.1	1	2	270	0.00	29.787 
18:25	34.9	34.9	34.9	76	28.1	2	4	270	0.00	29.787 
18:30	34.7	34.7	34.7	76	27.9	2	4	248	0.00	29.787 
18:35	34.7	34.7	34.7	76	27.9	1	3	292	0.00	29.787 
18:40	34.6	34.6	34.6	77	28.1	1	3	248	0.00	29.787 
18:45	34.4	34.4	34.4	77	27.9	1	3	338	0.00	29.789 
18:50	34.4	34.4	34.4	77	27.9	2	3	270	0.00	29.789 
18:55	34.4	34.4	34.4	77	27.9	1	3	315	0.00	29.789 
19:00	34.4	34.4	34.4	78	28.3	1	3	315	0.00	29.795 
19:05	34.3	34.3	34.3	78	28.2	2	4	270	0.00	29.795 
19:10	34.4	34.4	34.4	78	28.3	2	5	315	0.00	29.795 
19:15	34.4	34.4	34.4	77	27.9	3	6	270	0.00	29.803 
19:20	34.4	34.4	34.4	77	27.9	3	7	292	0.00	29.803 
19:25	34.4	34.4	34.4	77	27.9	3	7	315	0.00	29.803 
19:30	34.3	34.3	34.3	77	27.9	1	4	248	0.00	29.806 
19:35	34.3	34.3	34.3	77	27.9	2	7	338	0.00	29.806 
19:40	34.1	34.1	34.1	77	27.7	2	7	292	0.00	29.806 
19:45	34.1	34.1	34.1	78	28.0	2	5	338	0.00	29.812 
19:50	34.0	34.0	34.0	78	27.9	2	4	338	0.00	29.812 
19:55	34.0	34.0	34.0	78	27.9	1	4	292	0.00	29.812 
20:00	33.8	33.8	33.8	79	28.0	1	6	315	0.00	29.813 
20:05	33.8	33.8	33.8	80	28.3	2	6	292	0.00	29.813 
20:10	33.8	33.8	33.8	80	28.3	1	4	315	0.00	29.813 
20:15	33.7	33.7	33.7	81	28.5	1	4	292	0.00	29.817 
20:20	33.7	33.7	33.7	81	28.5	2	4	315	0.00	29.817 
20:25	33.7	33.7	33.7	81	28.5	2	7	270	0.00	29.817 
20:30	33.7	33.7	33.7	82	28.8	1	4	270	0.00	29.817 
20:35	33.5	33.5	33.5	82	28.6	2	5	292	0.00	29.817 
20:40	33.5	33.5	33.5	83	28.9	2	6	315	0.00	29.817 
20:45	33.4	33.4	33.4	84	29.1	1	3	315	0.00	29.821 
20:50	33.2	33.2	33.2	85	29.2	1	3	315	0.00	29.821 
20:55	33.1	33.1	33.1	86	29.4	1	4	338	0.00	29.821 
21:00	32.9	32.9	32.9	86	29.2	1	2	315	0.00	29.821 
21:05	32.9	32.9	32.9	87	29.5	1	2	315	0.00	29.821 
21:10	32.8	32.8	32.8	88	29.6	1	3	315	0.00	29.821 
21:15	32.8	32.8	32.8	88	29.6	1	3	315	0.00	29.819 
21:20	32.8	32.8	32.8	88	29.6	1	3	315	0.00	29.819 
21:25	32.7	32.7	32.7	88	29.5	1	3	315	0.00	29.819 
21:30	32.7	32.7	32.7	89	29.8	1	4	248	0.00	29.822 
21:35	32.7	32.7	32.7	89	29.8	2	5	270	0.00	29.822 
21:40	32.7	32.7	32.7	90	30.1	1	3	338	0.00	29.822 
21:45	32.7	32.7	32.7	90	30.1	1	3	315	0.00	29.825 
21:50	32.7	32.7	32.7	90	30.1	1	4	315	0.00	29.825 
21:55	32.7	32.7	32.7	90	30.1	1	2	292	0.00	29.825 
22:00	32.7	32.7	32.7	90	30.1	1	3	292	0.00	29.826 
22:05	32.7	32.7	32.7	90	30.1	1	3	315	0.00	29.826 
22:10	32.7	32.7	32.7	90	30.1	1	3	0	0.00	29.826 
22:15	32.7	32.7	32.7	91	30.4	1	4	270	0.00	29.825 
22:20	32.8	32.8	32.8	91	30.5	1	4	270	0.00	29.825 
22:25	32.8	32.8	32.8	91	30.5	0	2	0	0.00	29.825 
22:30	32.8	32.8	32.8	91	30.5	0	3	270	0.00	29.822 
22:35	32.7	32.7	32.7	91	30.4	0	2	270	0.00	29.822 
22:40	32.7	32.7	32.7	91	30.4	0	2	292	0.00	29.822 
22:45	32.7	32.7	32.7	91	30.4	0	2	292	0.00	29.820 
22:50	32.7	32.7	32.7	91	30.4	0	3	292	0.00	29.820 
22:55	32.7	32.7	32.7	91	30.4	0	3	315	0.00	29.820 
23:00	32.7	32.7	32.7	92	30.6	0	2	315	0.00	29.823 
23:05	32.7	32.7	32.7	92	30.6	0	2	225	0.00	29.823 
23:10	32.7	32.7	32.7	92	30.6	0	2	0	0.00	29.823 
23:15	32.7	32.7	32.7	92	30.6	0	3	248	0.00	29.828 
23:20	32.7	32.7	32.7	92	30.6	0	2	248	0.00	29.828 
23:25	32.7	32.7	32.7	92	30.6	0	2	248	0.00	29.828 
23:30	32.7	32.7	32.7	92	30.6	0	2	338	0.00	29.829 
23:35	32.7	32.7	32.7	92	30.6	0	3	338	0.00	29.829 
23:40	32.7	32.7	32.7	92	30.6	0	2	270	0.00	29.829 
23:45	32.7	32.7	32.7	92	30.6	0	2	270	0.00	29.824 
23:50	32.7	32.7	32.7	91	30.4	0	1	270	0.00	29.824 
23:55	32.8	32.8	32.8	91	30.5	0	1	270	0.00	29.824 

CoCoRaHS
IN-AL-39
A2 Web Hosting
Creative Commons License
GoDaddy
search engine by freefind advanced

loaded 2018-11-13 01:49:06 • last modified 2010-11-18 10:43:29
Privacy PolicyDisclaimer
• wx.awcolley.com is powered by PmWiki v.2002016 •
• all content (unless otherwise noted) © 2018 A W Colley